Home   Weather   Sumqayit   Past weeks

Flag for Azerbaijan Past Weather in Sumqayit, Azerbaijan — Yesterday and Last 2 Weeks

Now
43 °F

Clear.


Feels Like: 33 °F
Forecast: 29 / 40 °F
Wind: 25 mph from Southwest

Location: Baku / Bine Airport

Current Time: Dec 7, 2016 at 6:35:26 pm

Latest Report: Dec 7, 2016 at 6:00 pm


Visibility: 10 mi

Pressure: 29.95 "Hg

Humidity: 57%

Dew Point: 28 °F

Location of SumqayitLocation

Past Weather in Sumqayit — Graph

°F

Sumqayit Temperature Yesterday

Maximum temperature yesterday: 45 °F (at 1:00 am)
Minimum temperature yesterday: 32 °F (at 11:00 pm)
Average temperature yesterday: 38 °F

High & Low Weather Summary for the Past Weeks

 TemperatureHumidityPressure
High59 °F (Nov 29, 1:00 pm)100% (Nov 27, 4:30 am)30.89 "Hg (Nov 27, 4:30 am)
Low25 °F (Nov 24, 2:00 am)39% (Nov 29, 1:00 pm)29.53 "Hg (Dec 2, 4:00 pm)
Average42 °F76%30.20 "Hg
* Reported Nov 22 5:00 pm — Dec 7 5:30 pm, Sumqayit, Weather by CustomWeather, © 2016

Note: Actual official high and low records may vary slightly from our data, if they occured in-between our weather recording intervals... More about our weather records

Advertising

Sumqayit Weather History for the Previous 24 Hours

Scroll right to see more
 ConditionsComfort  
Time TempWeatherWind HumidityBarometerVisibility
5:30 pm
Wed, Dec 7
43 °FClear.25 mph53%29.98 "Hg10 mi
5:00 pm45 °FSunny.23 mph46%29.95 "Hg10 mi
4:30 pm46 °FSunny.14 mph40%29.98 "Hg10 mi
4:00 pm46 °FSunny.10 mph43%29.98 "Hg10 mi
3:30 pm46 °FSunny.13 mph46%30.01 "Hg10 mi
3:00 pm46 °FSunny.21 mph50%30.01 "Hg10 mi
2:30 pm45 °FSunny.22 mph49%30.04 "Hg10 mi
2:00 pm46 °FSunny.23 mph43%30.04 "Hg10 mi
1:30 pm45 °FSunny.33 mph46%30.04 "Hg10 mi
1:00 pm46 °FSunny.29 mph43%30.01 "Hg10 mi
12:30 pm45 °FSunny.26 mph49%30.04 "Hg10 mi
12:00 pm45 °FSunny.21 mph49%30.09 "Hg10 mi
11:30 am43 °FSunny.23 mph53%30.09 "Hg10 mi
11:00 am41 °FSunny.20 mph61%30.12 "Hg10 mi
10:30 am39 °FSunny.25 mph65%30.12 "Hg10 mi
10:00 am39 °FSunny.25 mph65%30.15 "Hg10 mi
9:30 am37 °FSunny.24 mph70%30.15 "Hg10 mi
9:00 am37 °FSunny.23 mph70%30.15 "Hg10 mi
8:30 am37 °FSunny.20 mph70%30.15 "Hg10 mi
8:00 am37 °FSunny.18 mph70%30.15 "Hg10 mi
7:30 am37 °FClear.17 mph75%30.15 "Hg10 mi
7:00 am39 °FClear.18 mph65%30.15 "Hg10 mi
6:30 am39 °FClear.23 mph65%30.18 "Hg10 mi
6:00 am39 °FClear.17 mph70%30.18 "Hg10 mi
5:30 am37 °FClear.16 mph75%30.21 "Hg10 mi
5:00 am37 °FClear.17 mph75%30.21 "Hg10 mi
4:00 am37 °FClear.10 mph81%30.24 "Hg10 mi
3:30 am37 °FClear.14 mph75%30.24 "Hg10 mi
3:00 am37 °FClear.12 mph75%30.24 "Hg10 mi
2:30 am37 °FClear.13 mph81%30.27 "Hg10 mi
2:00 am37 °FClear.12 mph81%30.27 "Hg10 mi
1:00 am37 °FClear.14 mph81%30.30 "Hg10 mi
12:30 am37 °FClear.13 mph81%30.30 "Hg10 mi
12:00 am36 °FClear.7 mph87%30.33 "Hg10 mi
11:30 pm
Tue, Dec 6
32 °FClear.8 mph93%30.33 "Hg10 mi
11:00 pm32 °FClear.6 mph100%30.36 "Hg10 mi
10:00 pm34 °FPassing clouds.3 mph93%30.36 "HgN/A
9:30 pm36 °FPassing clouds.2 mph87%30.36 "HgN/A
9:00 pm36 °FPassing clouds.7 mph93%30.36 "HgN/A
8:30 pm37 °FPassing clouds.9 mph87%30.39 "HgN/A
8:00 pm37 °FMostly cloudy.10 mph87%30.39 "HgN/A
7:30 pm37 °FMostly cloudy.12 mph87%30.39 "HgN/A
7:00 pm37 °FPartly cloudy.13 mph87%30.39 "HgN/A
6:30 pm37 °FPassing clouds.16 mph87%30.36 "HgN/A
6:00 pm37 °FSprinkles. Mostly cloudy.18 mph93%30.36 "HgN/A
Weather by CustomWeather, © 2016

See weather overviewHow to use our weather pages